Retour au catalogue

COSMOS 1275 DEB

ActifPO
NORAD 13808·DEBRIS·🇷🇺 Russia

Lancé Jun 4, 1981 depuis Plesetsk Cosmodrome

Loading…

Prochains Passages (prochaines 24 heures)

TLE

FraisSource: Space-Track

Époque: Sep 14, 2026, 19:44 UTC

1 13808U 81053HC  26257.82249431  .00000918  00000-0  67269-3 0  9993
2 13808  83.0284 271.5895 0058050 226.1427 309.9626 13.94090158202779

Suivez COSMOS 1275 DEB en temps réel avec AllMySat

Download on the App Store